Location: Newark
(7.0858°N, 171.3717°E)
Time: 07:38:53
(UTC+00:00)

Courier 1B - Pass Details

Date: 02 December 2020
Orbit: 962 x 1209 km, 28.3° (Epoch: 20 January)

Event Time Altitude Azimuth Distance (km) Brightness Sun altitude
Rises 03:25:19 0° 206° (SSW) 3,768 11.3 36.9°
Reaches altitude 10° 03:29:42 10° 181° (S) 2,765 10.4 36.0°
Maximum altitude 03:32:49 14° 153° (SSE) 2,481 9.8 35.4°
Drops below altitude 10° 03:35:53 10° 124° (SE) 2,711 9.7 34.7°
Sets 03:40:04 0° 99° (E) 3,637 10.1 33.9°
